Location: Gerlach
(40.6516°N, 119.3568°W)
Time: 16:27:27
(UTC-07:00)

ITAMSAT 1 - Pass Details

Date: 08 August 2024
Orbit: 782 x 795 km, 98.8° (Epoch: 14 September)

Event Time Altitude Azimuth Distance (km) Brightness Sun altitude
Exits shadow 22:52:48 - 227° (SW) 2,447 10.1 -26.1°
Reaches altitude 10° 22:53:12 10° 231° (SW) 2,352 10.1 -26.1°
Maximum altitude 22:56:22 16° 268° (W) 1,958 10.0 -26.5°
Drops below altitude 10° 22:59:34 10° 307° (NW) 2,366 11.0 -26.8°
Sets 23:02:50 0° 328° (NNW) 3,303 12.2 -27.1°
